Starlink 32480

operational
NORAD ID: 62039 Int'l Des: 2024-216 Owner: SPXS Country: US Constellation: starlink
LEOCIRCULAR

About Starlink 32480

Description loading...

Live Position

Loading 3D Globe...

Upcoming Passes

Altitude History

Altitude vs Time

uPlot chart will show altitude changes over time

Two-Line Element Set

1 62039U 24216H 26102.23509403 .00013081 00000-0 48414-3 0 9999
2 62039 43.0024 67.0744 0001491 275.3753 84.6929 15.27572017 77841
Epoch: Apr 12, 2026 • Age: 14 hours

Current Status

Altitude 486.6 km
Velocity 7.62 km/s
Sub-Earth Point -19.43°S, 93.92°W
Launch Date Nov 21, 2024
Age 1.3 years
Type internet

Technical Details

Classification Payload
Mass 730.00 kg
Dry Mass 700.00 kg
Total Mass 730.00 kg
Length 0.30 m
Diameter 4.10 m
Span 29.00 m
Shape Box + pan
Manufacturer SPXS
Bus Type Starlink V2M
Phase Status In Orbit
Owner/State SPXS/US

Large Constellations

Loading constellations...